Temperature
4 3 2 3 4 4 4 4 3 4 5 4 3 3 3 4 4 3 3 4 4 4 5 5 6 6 7 7 8 8 8 9 9 9 9 9 9 9 10 10 10 10 10 10
2 2 3 4 4 4 4 3 3 4 4 4 3 3 3 3 3 3 3 3 3 4 4 5 5 5 6 6 7 7 7 8 8 8 8 9 9 9 9 9 9 9 10 10
2 3 4 4 3 3 3 3 3 3 3 3 3 2 2 2 3 3 3 3 3 3 3 4 4 5 5 6 6 6 7 7 7 8 8 8 8 8 8 9 9 9 9 9
2 3 4 3 3 3 3 3 3 3 2 2 3 1 1 1 1 2 2 2 2 3 3 3 3 4 4 5 5 6 6 6 7 7 7 7 8 8 8 8 8 8 8 8
2 2 3 3 3 3 2 3 3 3 2 1 1 1 1 1 1 1 1 1 2 2 2 3 3 3 4 4 5 5 5 5 6 6 6 7 7 7 7 7 7 8 8 8
2 3 2 2 3 3 2 2 2 1 1 1 1 1 0 -0 -0 -0 -0 0 1 1 2 2 3 3 3 4 4 4 5 5 5 5 6 6 6 6 6 7 7 7 7 7
1 2 2 2 2 2 1 1 1 1 0 1 1 1 -0 -1 -0 -0 -1 -0 0 1 1 1 2 2 3 3 3 4 4 4 4 4 5 5 5 5 6 6 6 6 6 6
-0 0 1 1 1 1 1 1 0 1 0 0 0 -0 -1 -1 -0 -0 -0 -0 -0 0 0 1 1 2 2 2 3 3 3 3 4 4 4 4 5 5 5 5 5 5 6 6
-1 -0 1 1 1 1 1 -0 0 -0 -1 -1 -1 -2 -1 -1 -1 -1 -1 -1 -1 -1 -0 0 1 1 1 2 2 2 3 3 3 3 3 4 4 4 4 4 4 5 5 5
-1 -1 -0 1 1 1 0 -0 -1 -1 -1 -1 -1 -2 -2 -2 -2 -2 -2 -2 -1 -1 -1 -0 0 0 1 1 1 2 2 2 2 2 3 3 3 3 4 4 4 4 4 4
-1 -2 -1 -1 -1 -1 -1 -1 -2 -2 -1 -2 -2 -2 -2 -2 -2 -3 -2 -2 -2 -2 -1 -1 -1 -0 0 1 1 1 1 1 2 2 2 2 2 3 3 3 3 3 4 4
-2 -3 -3 -2 -1 -1 -2 -2 -2 -2 -2 -3 -3 -2 -2 -3 -3 -2 -2 -2 -2 -2 -2 -1 -1 -1 -0 0 0 0 1 1 1 1 1 2 2 2 2 2 3 3 3 3
-3 -3 -3 -1 -1 -2 -3 -3 -3 -3 -3 -4 -3 -3 -3 -3 -3 -3 -3 -3 -3 -2 -2 -2 -2 -1 -1 -1 -0 -0 -0 0 0 0 1 1 1 1 2 2 2 2 2 2
-2 -4 -3 -2 -2 -3 -4 -3 -3 -4 -4 -4 -4 -4 -4 -4 -4 -4 -3 -3 -3 -3 -3 -2 -2 -2 -2 -1 -1 -1 -1 -1 -1 -0 -0 -0 0 0 1 1 1 1 1 2
-3 -4 -4 -4 -3 -3 -4 -4 -4 -4 -5 -4 -4 -5 -4 -5 -5 -4 -4 -4 -4 -4 -3 -3 -3 -3 -2 -2 -2 -2 -2 -1 -1 -1 -1 -1 -1 -0 0 0 1 1 1 1
-4 -4 -4 -4 -3 -3 -4 -4 -4 -4 -5 -5 -5 -5 -5 -5 -5 -5 -4 -4 -4 -4 -4 -4 -4 -3 -3 -3 -2 -2 -2 -2 -2 -2 -2 -1 -1 -1 -1 -0 -0 -0 -0 -0
-5 -5 -4 -4 -4 -3 -5 -5 -6 -5 -6 -6 -5 -5 -5 -5 -5 -5 -5 -5 -5 -5 -5 -5 -4 -4 -4 -3 -3 -3 -3 -2 -2 -2 -2 -2 -2 -2 -1 -1 -1 -1 -1 -1
-5 -5 -5 -5 -4 -4 -4 -6 -6 -6 -6 -6 -6 -6 -6 -5 -5 -5 -5 -5 -5 -5 -5 -5 -5 -4 -4 -4 -4 -3 -3 -3 -3 -3 -2 -2 -2 -2 -2 -2 -2 -2 -2 -1
-6 -5 -6 -5 -6 -5 -5 -5 -6 -6 -6 -7 -7 -6 -6 -6 -6 -5 -5 -5 -5 -6 -5 -5 -5 -5 -4 -4 -4 -4 -4 -3 -3 -3 -3 -3 -3 -3 -3 -3 -3 -2 -2 -2
-6 -6 -6 -6 -5 -5 -5 -6 -6 -6 -6 -6 -7 -7 -6 -6 -7 -6 -6 -6 -6 -6 -6 -5 -5 -5 -5 -5 -4 -4 -4 -4 -4 -4 -4 -3 -3 -3 -3 -3 -3 -3 -3 -3
-7 -7 -7 -7 -7 -6 -7 -7 -6 -6 -6 -6 -6 -6 -6 -7 -7 -6 -6 -6 -6 -6 -6 -6 -6 -5 -5 -5 -5 -5 -5 -5 -4 -4 -4 -4 -4 -4 -4 -4 -3 -3 -3 -3
-8 -8 -8 -7 -7 -6 -7 -7 -7 -7 -6 -6 -6 -6 -6 -6 -6 -6 -6 -6 -6 -6 -6 -6 -6 -6 -6 -6 -6 -5 -5 -5 -5 -5 -5 -5 -4 -4 -4 -4 -4 -4 -4 -4
-8 -8 -8 -8 -6 -6 -6 -6 -6 -6 -6 -6 -6 -6 -7 -7 -7 -7 -7 -7 -7 -7 -7 -7 -7 -6 -6 -6 -6 -6 -6 -6 -6 -6 -5 -5 -5 -5 -5 -5 -5 -5 -5 -4
-8 -8 -9 -9 -8 -7 -6 -6 -6 -6 -6 -6 -7 -7 -7 -7 -7 -7 -7 -7 -7 -7 -7 -7 -7 -7 -7 -7 -7 -7 -7 -7 -6 -6 -6 -6 -6 -5 -5 -5 -5 -5 -5 -5
-9 -9 -9 -9 -8 -7 -6 -6 -6 -6 -7 -7 -7 -7 -7 -8 -8 -8 -8 -7 -7 -7 -7 -7 -7 -7 -7 -7 -7 -7 -7 -7 -7 -7 -7 -6 -6 -6 -6 -6 -6 -6 -6 -6
-9 -9 -9 -8 -7 -8 -7 -6 -6 -7 -7 -7 -7 -7 -7 -8 -8 -8 -8 -8 -8 -8 -8 -8 -8 -8 -7 -7 -7 -7 -7 -7 -7 -7 -7 -7 -7 -7 -7 -6 -6 -6 -6 -6
Wind_Speed
3 4 1 3 4 4 3 3 5 5 3 1 3 3 2 1 2 1 0 1 2 2 1 1 2 3 4 4 3 3 3 3 3 2 2 2 2 2 2 3 5 6 6 7
4 2 4 3 2 2 2 3 3 3 2 1 2 2 1 1 1 1 1 1 1 1 2 2 3 3 3 3 3 3 3 2 2 1 1 1 1 1 1 2 4 5 5 5
1 3 3 1 2 3 4 5 4 3 4 2 0 3 1 2 3 3 3 2 1 2 2 1 1 2 2 3 2 2 2 2 3 3 2 3 2 2 2 2 2 3 4 4
2 4 3 2 3 3 5 4 4 4 1 3 2 3 4 2 2 4 4 3 2 1 1 2 2 2 2 2 2 2 2 2 3 3 3 4 3 2 0 1 1 2 3 3
3 2 2 3 5 4 5 4 4 4 4 2 1 2 4 0 2 3 3 3 2 2 1 2 1 1 1 2 2 3 2 2 2 3 3 3 2 1 1 2 2 2 2 2
2 2 1 2 4 3 4 1 1 1 1 3 4 4 3 1 3 2 2 3 3 2 2 2 2 2 2 3 3 3 3 3 3 3 3 3 3 2 2 2 1 1 1 1
6 4 3 2 3 4 4 3 2 2 1 4 2 2 3 2 2 2 1 2 2 2 2 2 2 2 2 2 2 2 3 3 3 2 2 3 3 2 2 1 1 1 1 1
4 6 4 4 1 2 2 2 3 2 3 3 1 3 3 2 1 1 1 1 2 3 2 2 2 2 2 2 2 2 3 3 3 2 1 2 2 1 1 1 0 0 0 1
1 5 5 4 3 1 1 0 2 2 1 2 3 2 3 2 3 3 3 3 3 3 3 3 3 3 3 3 2 2 2 2 2 2 2 2 2 1 1 1 1 0 1 1
2 4 6 5 4 4 1 1 2 2 1 2 3 2 2 3 3 3 4 2 2 3 4 4 3 3 3 2 2 2 2 2 2 2 2 2 1 1 1 1 1 1 1 2
1 1 6 5 3 4 3 2 1 1 2 3 2 3 1 2 1 1 1 2 1 2 2 3 3 3 3 3 3 3 3 3 2 2 2 2 2 1 1 1 1 1 1 1
1 1 3 5 3 2 1 1 1 1 2 2 2 3 3 1 1 1 2 3 3 2 2 3 3 3 4 4 4 3 3 2 2 1 1 1 1 1 1 0 1 0 0 1
2 2 3 5 4 6 3 4 2 1 1 1 2 3 2 4 3 3 3 4 4 3 3 3 3 3 3 3 4 4 3 3 2 1 1 0 1 1 1 1 1 1 0 1
3 2 3 4 4 2 4 5 3 2 1 2 4 4 3 4 4 5 5 4 5 4 3 3 3 3 3 3 3 3 3 3 3 2 1 0 1 1 1 1 1 1 1 1
3 1 3 5 5 2 3 5 3 1 3 4 4 4 5 4 4 4 4 4 5 5 5 5 4 4 4 4 3 3 3 4 3 2 2 1 1 1 1 1 1 1 1 2
2 1 2 3 3 2 4 6 4 3 3 3 4 5 4 3 3 3 4 4 5 5 6 6 5 5 5 4 4 4 4 4 3 2 2 2 1 1 1 1 1 1 2 2
0 1 1 3 4 3 4 5 3 2 2 3 4 5 4 3 4 3 3 4 4 5 5 6 5 5 5 5 4 4 4 4 3 3 3 2 2 1 1 1 1 1 2 2
2 1 1 2 3 2 5 1 1 2 2 1 2 3 3 4 4 3 2 2 3 4 5 6 5 5 5 4 4 4 3 3 3 3 3 3 2 2 2 1 2 2 2 2
2 3 1 0 1 5 5 2 1 2 4 2 3 4 4 3 3 3 3 2 3 4 5 5 5 4 4 5 4 3 3 3 3 4 4 3 3 2 2 2 3 3 2 3
3 3 2 1 1 4 5 4 3 1 4 3 2 4 4 3 2 4 5 4 4 5 4 4 4 4 4 5 4 3 3 3 4 4 4 4 3 3 3 3 3 3 2 3
1 1 1 2 3 6 4 3 1 2 5 4 3 4 3 3 5 5 5 5 4 4 5 4 4 4 4 5 4 3 3 4 5 5 4 4 3 3 3 3 3 2 2 2
4 3 3 2 3 6 1 2 3 5 3 3 3 3 4 5 5 5 5 5 5 5 5 4 4 4 5 4 3 3 4 5 4 4 4 4 4 3 3 2 2 2 2 2
5 6 4 6 6 3 3 4 4 2 3 4 3 4 4 4 5 5 5 5 5 5 5 4 3 4 5 4 3 3 5 4 4 3 3 4 4 3 3 2 2 2 2 2
3 2 3 4 6 5 5 4 4 3 4 4 4 4 3 4 5 5 5 5 5 5 4 4 4 4 5 5 4 3 4 4 3 3 3 4 3 3 3 2 2 2 2 2
4 3 3 4 5 5 4 5 5 5 4 4 4 4 4 4 5 5 5 5 5 5 5 4 4 4 5 5 4 4 3 3 3 3 3 4 3 2 2 3 2 2 2 3
3 5 5 7 6 5 6 5 4 3 4 4 4 4 4 4 5 5 5 5 4 5 5 5 5 5 5 4 4 4 3 2 2 3 3 3 3 2 2 2 3 5 4 5
Wind_Direction
30 61 33 249 221 235 222 216 248 257 262 204 208 220 261 323 67 93 109 113 141 152 108 65 38 37 46 56 70 74 69 61 71 82 100 111 103 93 86 92 113 121 126 130
40 337 270 266 267 262 239 242 256 294 323 242 217 239 253 344 28 128 132 155 161 110 74 61 43 42 48 52 66 78 79 68 67 62 101 149 141 120 106 91 92 110 114 124
151 273 290 325 335 307 269 223 228 256 318 307 273 288 291 328 12 29 45 53 90 124 131 109 79 51 54 51 54 78 71 69 60 55 80 81 78 69 63 73 78 86 111 115
309 308 343 338 299 284 266 234 231 236 255 275 186 254 264 251 348 2 7 14 21 64 100 107 80 54 58 41 42 58 65 65 70 82 100 114 122 124 102 80 95 93 110 114
297 309 337 318 300 279 256 257 240 229 203 255 260 202 281 336 297 315 336 359 6 23 81 107 94 85 58 43 47 45 48 64 61 79 98 106 100 92 81 77 85 84 82 102
301 323 358 291 299 292 305 350 44 67 126 250 235 192 273 263 255 272 317 353 12 24 41 69 59 61 57 46 47 50 47 48 57 72 89 92 94 84 85 73 84 66 60 77
340 337 342 341 342 352 25 79 40 357 332 253 218 183 258 275 258 197 202 333 353 27 42 49 43 48 58 47 41 47 51 43 51 55 82 93 91 100 118 104 106 96 68 18
348 318 327 348 338 292 300 126 153 215 247 279 299 221 264 299 350 61 77 36 27 29 31 33 37 49 45 40 41 51 53 47 45 44 61 89 89 86 67 60 50 261 238 267
311 287 316 333 330 353 8 149 186 158 269 289 280 307 304 347 23 37 40 36 21 16 11 13 20 34 37 38 35 49 60 49 47 33 32 70 78 70 35 10 20 3 358 345
196 275 307 323 0 9 64 125 76 117 188 267 293 260 270 313 338 4 16 7 343 356 6 8 18 21 25 30 30 37 57 59 47 46 31 35 46 42 47 50 22 350 0 6
79 244 315 349 7 335 17 34 53 124 143 173 262 276 288 249 254 276 303 328 313 327 355 -0 4 13 26 30 35 36 35 39 33 31 49 35 31 30 38 25 336 345 3 359
7 114 292 282 287 350 103 72 104 157 262 187 195 272 353 39 26 28 333 333 341 345 6 3 360 18 27 24 23 20 13 15 5 3 46 39 14 12 22 348 310 317 303 320
63 83 348 339 343 3 10 357 0 143 119 171 196 256 12 31 12 360 346 340 344 348 5 3 5 8 18 15 8 3 358 350 346 351 0 18 359 324 297 298 302 308 301 314
81 105 175 221 258 295 311 336 1 93 167 233 226 239 303 339 338 341 346 344 340 341 356 2 356 352 356 357 354 352 349 350 346 338 314 290 288 278 281 293 294 291 277 261
82 232 253 253 256 272 311 314 333 213 218 220 251 243 274 300 308 318 330 339 346 352 357 352 341 340 343 342 343 346 346 342 337 327 309 292 281 279 285 298 310 317 300 283
50 280 297 287 262 281 326 326 300 266 261 250 275 281 285 304 323 329 336 341 343 345 340 337 335 339 334 330 329 332 333 329 328 321 304 298 293 293 295 296 297 302 301 297
359 85 355 292 318 346 316 296 264 251 248 209 239 262 305 321 316 308 316 327 329 329 328 325 323 320 317 315 313 314 314 320 329 321 315 314 303 292 288 294 302 295 291 293
167 134 202 301 11 276 253 283 233 237 278 276 251 279 299 289 296 287 273 298 313 317 317 316 315 317 318 318 319 319 320 322 327 321 314 311 311 301 303 305 292 288 284 277
156 154 162 196 278 275 290 308 260 227 286 311 276 294 310 327 347 316 316 318 295 299 301 300 301 305 316 321 322 328 332 333 334 322 313 306 300 297 300 299 290 287 284 282
62 92 125 142 210 253 269 295 301 155 282 308 298 290 304 346 323 290 312 317 311 312 312 313 317 325 325 321 328 339 334 334 325 316 309 305 298 291 287 287 289 290 283 282
28 33 159 203 232 263 273 295 54 149 270 300 282 278 286 259 248 277 300 306 307 309 313 317 320 322 315 318 329 330 327 318 312 314 314 314 309 300 291 294 297 296 293 297
187 186 205 182 219 259 254 114 178 234 277 282 280 273 270 269 281 292 299 304 314 318 318 318 318 318 320 323 327 323 316 311 318 327 329 323 316 311 313 304 303 303 291 283
199 196 198 200 220 247 195 204 237 243 257 268 271 273 268 276 287 296 301 304 309 313 314 313 307 313 319 324 319 306 308 317 324 331 329 322 321 325 325 308 297 300 290 275
254 191 197 250 261 262 254 257 276 258 255 268 268 272 269 271 284 293 299 307 312 311 312 316 315 317 316 317 313 298 305 316 323 324 321 320 324 328 335 329 313 302 290 281
231 186 212 254 274 294 269 251 259 269 272 277 285 278 272 275 284 285 291 299 306 311 311 314 311 304 303 310 312 309 310 315 323 320 322 326 327 323 332 335 326 313 299 282
207 189 197 233 232 221 254 252 249 257 274 278 284 293 291 278 278 286 290 292 298 307 312 313 312 307 306 311 315 314 309 305 310 319 322 318 317 319 326 328 332 334 329 332
Height
1506 1510 1512 1511 1509 1509 1509 1511 1511 1508 1505 1507 1508 1509 1509 1507 1506 1506 1506 1506 1506 1507 1508 1509 1509 1509 1510 1511 1512 1514 1515 1517 1518 1520 1521 1523 1525 1527 1529 1532 1533 1535 1537 1539
1511 1512 1509 1508 1508 1508 1509 1510 1511 1508 1505 1507 1509 1509 1508 1507 1507 1506 1505 1505 1505 1506 1506 1507 1507 1508 1508 1510 1511 1513 1514 1515 1517 1518 1520 1522 1523 1525 1528 1530 1532 1533 1534 1536
1513 1512 1508 1508 1508 1508 1507 1509 1509 1509 1507 1506 1508 1510 1509 1508 1508 1507 1506 1506 1505 1505 1505 1506 1506 1507 1507 1508 1510 1511 1512 1514 1515 1517 1519 1521 1522 1524 1525 1527 1529 1531 1533 1534
1513 1510 1508 1508 1508 1508 1508 1505 1505 1506 1510 1513 1510 1516 1511 1509 1508 1506 1506 1505 1505 1505 1505 1505 1505 1506 1507 1508 1509 1510 1511 1512 1513 1515 1516 1518 1519 1520 1522 1524 1527 1529 1531 1532
1515 1511 1510 1509 1508 1507 1505 1503 1503 1504 1509 1513 1512 1516 1514 1509 1509 1508 1507 1506 1505 1504 1504 1504 1505 1506 1506 1507 1508 1509 1511 1511 1512 1513 1514 1516 1518 1519 1521 1523 1525 1526 1528 1530
1514 1511 1511 1510 1507 1506 1504 1503 1503 1506 1510 1514 1512 1515 1515 1513 1511 1509 1507 1506 1505 1504 1503 1504 1504 1505 1505 1506 1507 1509 1510 1510 1511 1512 1513 1514 1516 1517 1519 1520 1522 1524 1525 1527
1518 1514 1512 1510 1508 1506 1506 1509 1514 1516 1519 1514 1509 1512 1515 1511 1509 1508 1507 1506 1505 1504 1503 1503 1503 1503 1504 1505 1506 1507 1508 1509 1510 1511 1511 1512 1513 1515 1517 1518 1520 1521 1522 1524
1526 1522 1515 1512 1512 1512 1510 1512 1518 1519 1519 1516 1512 1514 1516 1510 1508 1508 1507 1507 1506 1505 1504 1503 1503 1503 1503 1504 1505 1506 1506 1507 1508 1509 1509 1510 1512 1514 1515 1516 1518 1519 1520 1522
1531 1525 1516 1514 1512 1512 1512 1514 1514 1519 1520 1523 1520 1520 1514 1509 1508 1507 1507 1506 1505 1505 1504 1503 1503 1503 1504 1504 1504 1505 1505 1506 1507 1508 1508 1508 1510 1512 1513 1514 1516 1517 1518 1520
1530 1529 1520 1516 1513 1513 1513 1514 1518 1520 1520 1522 1520 1520 1517 1512 1510 1508 1507 1506 1506 1505 1503 1503 1503 1503 1503 1503 1504 1504 1504 1505 1505 1506 1506 1507 1508 1510 1511 1512 1513 1515 1516 1517
1530 1532 1526 1520 1520 1520 1518 1518 1519 1520 1520 1523 1524 1522 1514 1512 1510 1510 1509 1507 1506 1505 1504 1503 1503 1503 1502 1503 1502 1503 1503 1503 1504 1504 1505 1505 1506 1508 1509 1510 1511 1512 1513 1514
1531 1534 1533 1526 1521 1520 1520 1521 1522 1523 1524 1525 1526 1525 1514 1512 1511 1510 1509 1508 1506 1505 1504 1504 1503 1502 1501 1501 1501 1501 1501 1502 1502 1502 1503 1503 1504 1505 1506 1507 1508 1509 1510 1511
1532 1536 1536 1527 1527 1525 1524 1523 1523 1523 1525 1527 1527 1524 1515 1514 1512 1511 1510 1508 1506 1505 1504 1503 1502 1502 1501 1500 1500 1500 1500 1500 1500 1500 1501 1501 1502 1503 1503 1504 1505 1506 1507 1508
1530 1537 1538 1535 1532 1531 1530 1527 1525 1525 1529 1529 1526 1522 1518 1516 1514 1512 1510 1508 1506 1505 1503 1502 1501 1501 1500 1500 1500 1499 1498 1498 1498 1498 1498 1498 1499 1500 1501 1501 1502 1503 1503 1504
1532 1538 1537 1534 1531 1530 1529 1528 1527 1528 1527 1527 1523 1522 1518 1517 1515 1513 1511 1509 1507 1505 1503 1502 1501 1499 1499 1498 1498 1497 1496 1496 1496 1496 1496 1496 1496 1497 1498 1498 1498 1499 1500 1501
1534 1537 1536 1532 1528 1528 1528 1526 1526 1525 1526 1525 1523 1521 1517 1516 1515 1513 1511 1509 1506 1504 1503 1502 1500 1499 1498 1497 1496 1495 1494 1494 1494 1494 1493 1494 1494 1494 1494 1495 1495 1496 1496 1497
1537 1538 1537 1534 1530 1527 1530 1528 1528 1526 1525 1524 1524 1521 1517 1515 1514 1512 1511 1509 1507 1505 1503 1501 1500 1498 1496 1495 1495 1493 1493 1493 1492 1492 1491 1491 1491 1491 1491 1491 1492 1492 1492 1493
1537 1538 1539 1536 1535 1537 1530 1526 1526 1525 1523 1522 1520 1518 1516 1514 1513 1511 1510 1508 1506 1505 1502 1500 1498 1497 1495 1494 1493 1492 1491 1491 1490 1489 1488 1488 1488 1487 1487 1488 1488 1488 1488 1489
1534 1537 1539 1540 1541 1534 1527 1525 1526 1527 1523 1520 1519 1517 1515 1513 1512 1510 1509 1508 1506 1504 1502 1500 1497 1495 1494 1492 1491 1490 1489 1489 1488 1487 1486 1485 1485 1484 1484 1484 1484 1484 1485 1485
1535 1536 1540 1541 1540 1537 1528 1525 1523 1525 1523 1519 1518 1516 1515 1513 1514 1510 1508 1506 1504 1502 1500 1498 1496 1494 1492 1491 1489 1488 1487 1486 1485 1484 1483 1482 1482 1481 1481 1481 1481 1481 1481 1481
1541 1542 1543 1542 1542 1534 1528 1524 1523 1529 1524 1518 1517 1515 1514 1513 1512 1509 1506 1504 1503 1500 1498 1496 1494 1492 1490 1489 1487 1486 1484 1483 1482 1481 1480 1479 1479 1478 1478 1478 1477 1477 1477 1477
1541 1543 1543 1541 1541 1534 1524 1524 1526 1524 1519 1517 1516 1514 1512 1510 1509 1507 1505 1502 1500 1498 1496 1494 1492 1490 1488 1487 1485 1483 1482 1481 1480 1478 1477 1477 1476 1476 1475 1475 1474 1474 1474 1473
1537 1536 1535 1534 1530 1523 1521 1520 1519 1519 1517 1515 1514 1512 1511 1508 1506 1504 1502 1500 1498 1496 1494 1492 1490 1488 1486 1485 1483 1481 1480 1479 1477 1476 1475 1474 1473 1473 1472 1472 1471 1471 1470 1470
1531 1530 1531 1529 1523 1520 1519 1518 1517 1516 1515 1513 1512 1510 1508 1506 1504 1502 1500 1498 1496 1494 1492 1490 1488 1485 1483 1482 1480 1479 1478 1477 1475 1474 1473 1472 1471 1470 1469 1469 1468 1468 1467 1467
1527 1527 1527 1525 1520 1518 1516 1515 1515 1514 1512 1511 1509 1508 1506 1504 1502 1500 1497 1495 1493 1491 1489 1487 1485 1483 1481 1479 1478 1477 1475 1474 1473 1472 1470 1469 1469 1468 1467 1466 1466 1465 1464 1464
1522 1522 1523 1520 1516 1516 1513 1512 1512 1511 1509 1508 1506 1505 1503 1502 1499 1497 1495 1493 1491 1489 1487 1485 1482 1480 1478 1477 1475 1474 1473 1472 1471 1469 1468 1467 1466 1465 1464 1463 1463 1462 1462 1461